Location: Peebles
(55.6412°N, 3.1714°W)
Time: 06:34:06
(UTC+01:00)

deb NNS O-4 - Pass Details

Date: 05 July 2022
Orbit: 977 x 1074 km, 89.9° (Epoch: 16 August)

Event Time Altitude Azimuth Distance (km) Brightness Sun altitude
Exits shadow 03:24:02 - 206° (SSW) 3,052 ? -7.1°
Reaches altitude 10° 03:24:28 10° 207° (SSW) 2,902 ? -7.0°
Maximum altitude 03:30:48 45° 279° (W) 1,425 ? -6.6°
Drops below altitude 10° 03:37:06 10° 351° (N) 2,876 ? -6.1°
Sets 03:39:47 0° 358° (N) 3,819 ? -5.9°
